Home   Weather   Fort Myers   Past weeks

Flag for USA Past Weather in Fort Myers, Florida, USA — Yesterday and Last 2 Weeks

Now
89 °F

Scattered clouds.


Feels Like: 90 °F
Forecast: 74 / 93 °F
Wind: 15 mph from Southeast

Location: Page Field

Current Time: Apr 29, 2017 at 7:51:33 pm

Latest Report: Apr 29, 2017 at 6:53 pm


Visibility: 10 mi

Pressure: 30.03 "Hg

Humidity: 43%

Dew Point: 64 °F

Location of Fort MyersLocation

Past Weather in Fort Myers — Graph

°F

Fort Myers Temperature Yesterday

Maximum temperature yesterday: 94 °F (at 1:53 pm)
Minimum temperature yesterday: 72 °F (at 3:53 am)
Average temperature yesterday: 81 °F

High & Low Weather Summary for the Past Weeks

 TemperatureHumidityPressure
High94 °F (Apr 28, 1:53 pm)100% (Apr 23, 6:53 am)30.20 "Hg (Apr 23, 6:53 am)
Low62 °F (Apr 26, 6:53 am)29% (Apr 14, 5:53 pm)29.75 "Hg (Apr 24, 3:53 pm)
Average78 °F68%29.99 "Hg
* Reported Apr 14 5:53 pm — Apr 29 5:53 pm, Fort Myers, Weather by CustomWeather, © 2017

Note: Actual official high and low records may vary slightly from our data, if they occured in-between our weather recording intervals... More about our weather records

Advertising

Fort Myers Weather History for the Previous 24 Hours

Scroll right to see more
 ConditionsComfort  
Time TempWeatherWind HumidityBarometerVisibility
5:53 pm
Sat, Apr 29
91 °FPassing clouds.16 mph41%30.02 "Hg10 mi
4:53 pm90 °FBroken clouds.14 mph42%30.03 "Hg10 mi
3:53 pm93 °FPassing clouds.13 mph37%30.04 "Hg10 mi
2:53 pm94 °FPassing clouds.13 mph37%30.06 "Hg10 mi
1:53 pm93 °FPassing clouds.15 mph40%30.08 "Hg10 mi
12:53 pm91 °FScattered clouds.15 mph45%30.10 "Hg10 mi
11:53 am88 °FScattered clouds.15 mph50%30.11 "Hg10 mi
10:53 am86 °FPartly sunny.18 mph57%30.12 "Hg10 mi
9:53 am83 °FBroken clouds.16 mph68%30.13 "Hg10 mi
8:53 am80 °FSunny.13 mph79%30.12 "Hg10 mi
7:53 am75 °FSunny.9 mph94%30.11 "Hg8 mi
6:53 am74 °FFog.8 mph97%30.09 "Hg6 mi
5:53 am74 °FClear.9 mph97%30.07 "Hg8 mi
4:53 am74 °FClear.8 mph97%30.07 "Hg8 mi
3:53 am74 °FClear.7 mph97%30.07 "Hg8 mi
2:53 am75 °FClear.8 mph94%30.07 "Hg9 mi
1:53 am76 °FClear.9 mph91%30.08 "Hg9 mi
12:53 am77 °FClear.10 mph88%30.08 "Hg10 mi
11:53 pm
Fri, Apr 28
78 °FClear.10 mph82%30.08 "Hg10 mi
10:53 pm79 °FClear.13 mph77%30.07 "Hg10 mi
9:53 pm81 °FClear.9 mph69%30.08 "Hg10 mi
8:53 pm84 °FClear.9 mph61%30.05 "Hg10 mi
7:53 pm84 °FPartly sunny.3 mph74%30.03 "Hg10 mi
Weather by CustomWeather, © 2017

See weather overviewHow to use our weather pages